星链-34881 (STARLINK-34881)

导读 | 豆包AI

STARLINK-34881是美国SpaceX星链星座中的一颗卫星,于2025年8月27日成功发射。星链计划旨在构建全球卫星互联网星座,为全球偏远地区、海洋空域等提供低成本高速互联网接入。这颗卫星加入星座网络,进一步扩充了星链的覆盖范围与服务能力,体现了美国在低轨卫星互联网建设领域的持续推进。

基本信息
目录编号:
65347
目录名称:
STARLINK-34881
国际标识:
2025-189AA
轨道中心:
EARTH
卫星名称:
星链-34881
卫星全名:
星链-34881 (STARLINK-34881)
卫星状态:
在轨 (已飞行199 天)
发射日期:
2025-08-27 UTC
国别 :
美国 (US)
星等 :
--
轨道信息
数据来源 国际轨道数据 AOE轨道数据
星历时间 2026-03-13T15:58:45+0800
1天前
查看轨道信息
2026-03-11T06:00:00+0800
3天前
查看轨道信息
半长轴 6853.26km 6853.399km
偏心率 0.0001333 0.0001434
轨道倾角 53.158° 53.150°
近地点辐角 105.276° 48.583°
升交点赤经 189.881° 201.110°
平近点角 254.839° 316.163°
近地点 474.209km 474.279km
远地点 476.037km 476.245km
周期 94.103分钟 94.106分钟
每日圈数 15.302309 15.301843
详细信息
固有亮度:
5
最大亮度:
2.5
卫星平台:
Starlink V1.0
覆盖范围:
全球
运营商:
太空探索技术公司
运营商所在国:
美国
制造商(研发单位):
太空探索技术公司
制造商所在国:
美国
使用方式:
暂无
卫星简介
Starlink 计划是 SpaceX 推出的全球卫星互联网项目,通过发射低轨道卫星,为全球尤其是偏远地区提供高速、低延迟的互联网服务。自 2019 年起,Starlink 已部署数千颗卫星,旨在缩小全球数字鸿沟,推动互联网普及。该项目还为军事、航空等行业提供通信支持,带来广泛经济效益。
2D轨道图
3D轨道图
轨道高度分析图
轨道倾角分析图
轨道综合分析图
查看轨道综合分析图